Probability
0 0 0 0 0 0 0 0 1 1 1 0 0 1 4 6 5 3 8 25 36 21 9 9 9 7 6 7 7 5 3 3 3 3 3 3 3 3 3 3 3 3 3 3 3 3 3 3 3
0 0 0 0 0 0 0 0 1 1 0 0 0 0 1 2 3 3 8 21 25 15 6 6 6 5 5 5 5 4 3 3 3 3 3 3 3 3 3 3 3 3 3 3 3 3 3 3 3
0 0 0 0 0 0 0 0 0 0 0 0 0 0 0 0 1 2 6 12 12 7 4 3 3 3 3 3 4 3 3 3 3 3 3 3 3 3 3 3 3 3 3 3 3 3 3 3 3
0 0 0 0 0 0 0 0 0 0 0 0 0 0 0 1 2 3 5 6 5 4 3 3 3 3 3 3 3 3 3 3 3 3 3 3 3 3 3 3 3 3 3 3 3 3 3 3 3
0 0 0 0 0 0 0 0 0 0 0 0 0 0 1 3 5 5 4 4 4 4 4 3 3 3 3 3 3 2 3 3 3 3 3 3 3 3 3 3 3 3 3 3 3 3 3 3 3
0 0 0 0 0 0 0 1 1 1 0 0 0 0 2 6 7 5 3 4 7 9 6 4 3 3 3 3 3 3 3 3 3 3 3 3 3 3 3 3 3 3 3 3 3 3 3 3 2
0 0 0 0 0 0 0 1 2 1 0 0 0 0 3 8 8 4 3 5 11 15 11 5 3 3 3 3 3 3 3 3 3 3 3 3 3 3 3 3 3 3 3 3 3 3 2 1 1
0 0 0 0 0 0 0 0 2 2 1 0 0 0 5 9 7 4 4 6 13 18 14 6 3 3 3 3 3 3 3 3 3 3 3 3 3 3 3 3 3 3 3 2 2 1 1 0 0
0 0 0 0 0 0 0 1 2 2 0 0 0 2 6 8 6 3 4 7 13 19 17 12 10 7 4 4 4 3 3 3 3 3 3 3 3 3 3 3 3 3 1 1 1 0 0 0 0
0 0 0 0 0 0 0 1 2 1 0 0 2 5 8 6 3 3 4 9 15 18 19 22 22 13 7 6 5 4 3 3 3 3 3 3 3 3 3 4 3 2 1 0 0 0 0 0 0
0 0 0 0 0 0 0 0 1 1 1 1 4 9 10 7 4 3 6 12 17 16 17 26 30 21 13 11 7 4 4 3 3 3 3 3 3 3 4 4 4 3 1 1 0 0 0 0 0
0 0 0 0 0 0 0 0 0 1 1 2 5 10 13 11 7 6 11 20 24 21 18 26 37 37 33 26 15 8 6 5 5 5 4 3 3 3 4 5 5 3 3 2 2 2 1 0 0
0 0 0 0 0 0 0 0 1 1 1 3 5 9 14 14 10 11 21 34 43 42 36 40 55 65 67 56 35 23 21 18 16 13 9 7 8 11 14 13 10 7 9 11 12 10 7 5 4
0 0 0 0 0 0 0 0 1 2 2 2 3 5 9 13 16 23 38 55 69 72 69 70 79 88 89 76 57 48 47 45 42 37 30 22 24 31 33 30 25 24 26 28 26 22 20 16 12
0 0 0 0 0 0 0 0 1 2 2 1 1 2 6 12 23 40 59 77 88 92 93 92 94 97 95 81 70 66 69 71 73 70 58 44 43 48 52 51 48 48 47 43 39 35 33 29 24
0 0 0 0 0 0 0 0 0 1 3 3 3 3 6 14 28 50 74 90 97 99 99 98 98 99 97 89 82 80 82 88 91 88 76 61 55 56 61 64 62 59 54 49 43 39 36 33 30
0 0 0 0 0 0 0 0 0 1 4 4 4 4 8 17 32 56 80 95 100 100 100 99 99 100 99 97 95 93 94 94 92 87 78 68 60 57 59 61 57 51 47 42 36 31 28 26 25
0 0 0 0 0 0 0 0 0 1 3 4 3 4 8 20 41 65 84 96 99 99 100 100 100 100 100 100 99 97 94 89 83 79 72 62 53 46 44 43 39 34 30 27 22 18 15 14 14
0 0 0 0 0 0 0 0 0 0 1 2 2 3 7 23 50 75 90 97 98 98 99 100 100 100 100 100 98 94 87 79 69 61 53 43 33 26 23 21 19 15 12 11 10 7 5 4 4
0 0 0 0 0 0 0 0 0 0 0 1 1 1 7 26 56 82 95 99 98 98 99 100 100 100 100 98 94 88 79 66 51 38 28 20 13 10 8 7 5 3 2 2 2 1 0 0 0
0 0 0 0 0 0 0 0 0 0 0 0 0 0 5 25 56 84 97 100 99 99 100 100 100 99 97 94 87 77 66 50 33 20 12 6 3 2 1 1 0 0 0 0 0 1 0 0 0
0 0 0 0 0 0 0 0 0 0 0 0 0 0 4 22 53 83 97 100 99 98 98 98 96 94 91 87 80 70 55 39 23 12 5 2 0 0 0 0 0 0 0 0 0 0 0 0 0
0 0 0 0 0 0 0 0 0 0 0 0 0 1 5 21 53 84 97 98 96 91 88 86 83 80 77 75 72 64 50 33 18 7 1 0 0 0 0 0 0 0 0 0 0 0 0 0 0
0 0 0 0 0 0 0 0 0 0 0 0 1 4 11 29 60 86 95 92 85 77 69 63 59 56 54 52 51 47 37 23 10 3 0 0 0 0 0 0 0 0 0 0 0 0 0 0 0
0 0 0 0 0 0 0 0 0 0 0 1 3 8 20 42 68 87 90 82 70 58 48 39 33 31 28 26 26 23 17 10 4 0 0 0 0 0 0 0 0 0 0 0 0 0 0 0 0
0 0 0 0 0 0 0 0 0 0 0 1 4 10 25 50 72 84 80 67 53 40 29 21 17 14 12 11 10 9 6 3 1 0 0 0 0 0 0 0 0 0 0 0 0 0 0 0 0
0 0 0 0 0 0 0 0 0 0 0 1 3 10 27 52 73 77 67 52 36 23 14 10 8 7 6 6 5 4 3 1 0 0 0 0 0 0 0 0 0 0 0 0 0 0 0 0 0
0 0 0 0 0 0 0 0 0 0 0 0 3 13 32 57 72 69 55 38 24 13 7 5 3 3 3 3 3 2 1 1 0 0 0 0 0 0 0 0 0 0 0 0 0 0 0 0 0
0 0 0 0 0 0 0 0 0 0 0 0 4 18 41 62 69 62 46 29 16 8 4 2 1 1 1 1 1 0 0 0 0 0 0 0 0 0 0 0 0 0 0 0 0 0 0 0 0
0 0 0 0 0 0 0 0 0 0 0 0 5 22 47 66 68 57 41 24 12 5 2 0 0 0 0 0 0 0 0 0 0 0 0 0 0 0 0 0 0 0 0 0 0 0 0 0 0
Wind_Speed
8 11 11 9 8 10 15 11 3 8 10 10 11 10 16 16 11 10 9 16 22 19 16 16 15 14 14 13 13 13 13 13 13 12 12 11 11 10 10 10 9 10 10 11 11 10 9 8 7
10 12 10 8 10 13 11 4 6 13 7 5 8 10 16 15 14 13 13 17 21 18 15 15 15 14 14 13 13 13 13 13 13 12 12 11 10 9 9 9 9 9 9 9 9 9 8 6 5
12 14 9 9 14 16 9 4 4 12 9 7 9 11 13 11 12 11 14 17 18 16 15 16 16 14 13 13 12 12 13 13 12 12 11 10 10 9 8 8 9 8 8 8 8 7 6 5 4
8 8 8 11 18 16 7 4 5 10 7 7 9 12 13 9 11 15 16 16 17 17 17 16 15 14 13 12 11 11 12 12 11 11 10 9 9 8 7 8 8 7 7 7 7 6 5 4 3
9 8 12 15 20 14 8 6 5 8 6 6 11 16 13 13 17 18 16 16 16 17 17 16 15 14 13 12 11 10 10 10 10 10 9 8 8 7 7 7 7 6 6 6 6 5 5 3 2
9 9 13 16 18 14 8 7 7 7 5 2 9 16 14 16 16 16 16 14 15 18 17 15 15 15 13 12 11 10 9 9 9 8 8 8 7 7 7 7 7 6 6 6 6 5 4 3 1
11 12 15 19 16 11 7 8 10 9 7 5 8 14 14 16 16 16 15 14 16 18 18 15 14 13 13 12 11 10 9 9 8 8 8 7 7 7 7 7 7 7 6 6 5 5 4 3 2
12 12 18 19 16 10 8 8 9 11 7 4 6 9 15 17 16 16 15 14 15 16 17 16 15 14 12 11 12 11 11 10 9 9 8 8 8 8 8 8 7 7 7 6 6 5 5 4 4
16 14 16 19 15 7 8 9 8 11 8 8 5 11 20 21 18 16 14 14 13 14 14 16 16 14 13 13 13 12 11 10 10 9 9 8 7 7 7 8 9 8 7 7 7 7 7 7 7
14 14 20 18 12 3 6 9 10 11 13 11 7 16 21 18 17 16 15 14 14 14 14 13 15 14 14 12 11 9 9 9 8 7 8 7 5 4 7 10 10 9 9 8 9 9 8 8 6
18 20 20 16 10 7 6 6 9 12 12 8 6 11 14 18 16 16 16 14 14 13 11 14 13 10 11 10 9 7 6 7 9 8 8 5 4 5 6 5 6 6 8 6 7 8 7 5 1
19 20 20 16 9 6 10 12 10 11 9 11 10 3 9 16 17 16 17 15 15 14 12 14 13 9 8 9 7 6 6 6 5 6 5 4 2 2 3 4 5 5 4 5 4 4 3 0 2
19 19 18 14 10 9 13 15 13 11 8 14 18 18 19 18 17 15 14 14 16 14 11 12 12 8 5 5 5 6 5 5 5 5 3 3 2 1 2 1 1 1 1 2 1 1 2 2 3
17 18 19 17 14 14 14 15 16 14 10 13 14 17 22 19 17 15 15 15 14 13 12 11 12 10 7 4 2 3 5 4 5 4 4 3 2 2 2 1 1 2 3 4 3 3 3 2 2
19 17 17 17 16 16 15 17 19 15 11 10 12 14 18 17 16 16 14 14 14 12 11 11 12 11 8 7 5 4 5 5 5 4 4 3 2 3 1 1 1 2 2 2 2 3 2 2 2
17 18 18 17 17 19 19 19 17 15 13 11 10 12 13 11 15 16 17 13 14 13 11 11 12 13 9 7 5 4 4 5 5 5 4 4 3 2 1 2 3 2 2 2 2 2 3 4 4
18 18 19 20 21 22 21 18 18 13 11 9 9 11 11 11 13 13 17 17 15 13 12 10 9 13 11 8 5 4 4 5 5 5 4 4 4 4 3 4 4 2 2 4 4 5 4 4 4
16 18 20 22 21 23 22 18 16 11 9 10 11 13 11 11 10 11 13 15 14 13 11 9 8 10 10 8 5 5 6 5 5 6 5 5 4 5 4 4 4 4 4 4 4 3 3 3 3
20 21 19 18 20 21 20 18 16 14 12 14 14 13 13 10 9 8 14 16 13 11 11 9 9 8 7 6 7 6 6 5 5 6 6 6 6 6 4 5 3 3 4 4 4 3 4 3 2
21 22 21 17 15 13 13 15 13 15 15 14 14 13 11 9 7 11 14 15 14 12 11 9 9 9 7 5 4 5 6 6 6 6 6 6 6 4 5 4 3 4 2 2 1 1 2 3 3
19 18 18 17 16 16 15 16 15 17 21 20 17 16 15 10 9 13 14 14 13 11 10 9 8 8 6 7 6 6 5 6 6 5 4 5 5 5 5 4 4 3 2 2 1 2 2 3 4
15 14 15 17 16 15 18 17 16 18 21 23 21 18 16 13 10 14 15 14 12 10 8 8 8 7 6 7 7 8 7 6 6 5 5 5 4 4 4 4 4 3 2 3 3 5 3 3 3
13 14 15 16 15 17 17 18 16 16 18 17 18 18 16 13 10 15 15 13 12 11 9 8 8 7 6 5 6 6 5 5 5 6 6 5 4 4 4 4 3 1 1 3 3 2 3 3 3
12 13 13 13 13 17 18 19 19 17 18 16 13 11 10 10 10 16 16 15 13 11 10 9 9 7 6 5 4 4 7 7 7 6 5 4 5 4 3 4 2 1 2 2 1 1 2 1 2
14 11 9 12 13 17 19 19 17 16 16 11 5 4 3 7 12 17 17 15 13 12 10 9 9 8 6 5 6 6 7 7 6 5 4 2 4 5 4 4 2 2 1 0 0 1 2 2 2
15 16 13 12 13 12 11 10 8 7 4 2 1 2 4 8 12 16 16 14 12 12 11 10 9 8 7 6 6 6 6 4 3 2 2 1 3 6 5 3 2 0 1 2 1 2 3 2 2
16 15 16 15 17 16 14 16 13 6 6 6 6 6 5 9 14 16 15 13 12 12 10 10 9 8 7 7 6 5 4 5 5 3 2 4 3 4 4 2 0 1 1 2 2 3 4 4 4
19 15 10 12 13 15 15 15 10 8 4 2 3 1 2 11 15 17 15 13 11 11 10 9 8 8 7 6 5 5 5 5 4 3 5 5 4 4 1 1 1 2 3 3 4 4 4 4 5
16 17 15 12 12 13 13 8 3 6 6 4 3 1 7 13 16 16 15 14 13 13 11 10 8 8 6 5 4 5 4 3 2 3 4 3 2 1 2 2 2 3 4 4 4 5 6 6 5
14 16 15 12 13 13 13 10 5 7 9 10 9 7 8 14 16 17 17 16 14 13 11 9 7 6 5 6 6 5 4 3 3 4 3 2 1 2 3 3 4 4 5 4 5 5 6 5 6
Wind_Direction
240 257 259 273 262 250 262 274 78 70 57 58 47 50 65 56 69 108 141 107 106 113 121 121 118 116 112 109 111 114 117 119 119 117 115 113 109 106 102 99 99 101 103 104 105 104 102 99 95
260 260 266 260 263 265 273 315 81 92 96 98 80 71 77 73 85 112 120 109 112 121 132 126 125 121 117 114 113 114 117 118 117 116 115 113 111 108 107 105 105 105 106 108 108 107 106 104 100
262 266 270 261 252 261 288 346 118 119 136 117 90 72 66 87 101 114 119 121 119 124 123 127 132 126 122 118 117 118 118 118 117 116 115 114 111 109 109 109 109 108 109 110 109 108 107 104 99
242 235 241 253 259 259 243 224 164 124 124 110 103 88 82 82 108 123 132 130 126 129 126 134 135 132 128 125 122 121 121 120 119 118 117 115 113 113 112 111 111 112 112 110 109 108 108 107 103
237 249 238 253 259 256 218 187 133 112 110 112 105 101 95 96 110 126 139 136 135 130 128 138 139 136 135 132 130 128 126 123 122 121 120 118 115 113 112 111 112 113 112 110 110 113 114 114 113
222 230 240 247 252 243 211 153 128 105 92 116 113 113 112 116 124 141 143 145 138 129 129 137 142 142 141 141 139 136 131 127 125 124 124 123 121 120 118 116 115 113 112 112 116 121 125 130 144
240 243 247 251 253 235 198 157 149 135 163 197 138 121 126 136 141 148 146 151 139 132 133 145 148 148 148 148 146 141 136 133 132 133 135 137 138 137 133 128 124 124 124 125 129 135 143 156 193
242 260 266 267 263 240 182 171 166 148 167 186 175 137 139 139 148 148 150 149 142 141 143 149 151 153 156 156 153 149 146 146 147 150 156 159 160 158 152 147 138 140 141 143 149 160 174 189 213
236 251 263 264 259 234 180 178 168 150 155 204 195 126 138 143 151 150 153 153 149 145 145 150 150 157 161 157 152 153 156 159 161 169 177 179 187 172 167 150 149 156 160 164 173 187 199 208 222
227 240 247 261 278 240 207 192 175 169 173 207 159 119 132 147 155 159 159 160 153 150 150 147 148 159 162 152 149 164 171 169 186 179 181 195 191 170 152 151 165 172 177 181 198 207 215 220 219
228 242 260 284 303 324 296 238 205 196 185 185 136 119 142 157 163 168 163 163 154 154 154 147 151 160 155 142 165 169 171 165 193 180 181 183 172 160 155 162 170 186 189 198 202 213 224 221 191
236 246 258 280 299 301 288 279 248 231 197 144 110 126 189 179 173 175 165 161 156 160 160 152 147 156 152 149 163 158 156 172 174 156 177 163 184 178 157 172 178 186 191 195 194 216 199 60 322
236 250 262 271 280 276 270 272 267 244 195 148 150 180 203 195 179 177 162 159 160 160 161 151 145 136 120 115 153 159 146 158 141 145 170 153 165 169 123 110 83 294 149 152 271 324 48 16 309
243 241 252 262 262 261 261 265 262 250 206 168 166 189 198 194 181 174 165 159 162 158 157 141 138 130 124 127 165 126 129 119 127 133 141 135 107 93 79 82 73 347 29 37 359 359 10 336 340
257 257 252 249 253 256 256 254 252 244 220 187 184 202 204 190 181 175 168 161 157 151 147 138 142 140 148 160 182 153 143 140 127 117 117 115 94 97 77 100 108 36 39 48 1 354 330 303 306
249 246 252 250 247 248 248 250 251 235 220 207 208 212 211 192 192 180 167 157 149 151 147 152 159 151 160 165 184 156 145 133 124 123 119 115 100 95 72 67 72 24 10 36 26 14 356 2 354
245 238 242 245 237 235 236 244 258 252 216 212 225 231 217 200 204 188 166 156 149 147 150 160 158 153 162 159 158 119 105 109 113 107 105 101 91 82 68 76 60 5 33 43 21 43 16 356 348
234 234 235 241 242 230 230 232 243 251 222 221 227 235 229 213 200 180 156 143 139 141 148 157 150 150 154 150 145 128 118 109 100 94 92 95 89 71 52 89 62 27 49 53 42 19 359 328 305
251 257 255 246 239 238 228 233 241 245 222 232 238 236 235 221 190 150 136 134 139 144 150 150 153 148 150 150 155 145 137 125 108 104 98 87 80 76 60 76 80 59 63 56 34 19 340 316 326
242 257 267 274 273 261 242 236 244 262 257 237 240 250 245 233 161 132 132 140 148 151 151 151 151 153 159 148 142 136 129 119 105 97 96 92 84 73 87 69 65 69 64 90 59 22 328 322 340
239 247 261 270 278 277 268 251 247 256 266 260 241 236 245 233 174 146 142 146 149 153 157 157 152 153 155 134 121 113 102 109 115 125 112 100 99 86 72 73 58 38 5 77 20 8 355 338 326
243 248 259 267 268 268 266 265 247 242 244 246 242 232 235 237 193 158 152 148 147 146 141 136 134 134 128 127 136 143 152 152 144 136 121 109 100 101 94 82 71 37 12 52 12 56 356 338 314
247 252 252 252 257 264 266 270 267 261 253 247 238 225 226 228 195 155 148 144 138 132 127 123 121 122 126 133 146 154 143 124 121 121 128 129 119 114 115 108 88 57 44 70 41 32 357 333 347
243 250 258 262 262 257 254 258 262 259 259 257 243 212 210 220 156 139 135 131 127 125 123 123 120 116 119 123 127 129 123 125 128 129 140 155 150 145 134 123 97 55 57 63 36 18 305 337 355
221 233 239 237 236 246 246 246 254 256 260 265 237 180 161 137 133 131 131 132 133 132 130 128 124 118 114 109 105 106 110 114 124 135 157 186 153 132 107 97 92 60 63 290 287 288 292 287 276
217 224 239 255 261 268 273 260 263 290 292 306 71 116 130 136 133 130 130 132 136 136 134 131 125 119 112 106 103 103 116 131 127 107 134 111 74 100 118 110 118 105 308 318 3 311 283 266 259
237 228 236 252 268 277 281 289 292 257 225 217 221 226 205 146 130 127 128 131 136 135 132 130 125 120 115 111 109 108 100 92 97 90 57 83 75 111 98 103 139 278 288 289 288 275 284 277 262
227 244 249 250 262 272 280 282 298 329 336 295 246 253 111 123 124 124 124 129 129 124 118 115 116 116 114 115 123 115 97 96 108 104 78 71 67 63 68 269 270 273 270 263 262 273 269 270 267
213 227 243 260 265 268 271 275 29 23 13 1 342 13 111 123 125 125 128 125 120 117 118 116 113 112 113 111 96 96 97 101 109 95 97 91 77 76 273 286 283 281 277 272 266 269 276 279 282
237 237 233 238 251 262 273 282 345 26 23 21 9 29 92 120 125 127 125 123 123 123 121 117 115 113 109 100 89 83 76 68 66 76 71 69 58 323 313 310 302 296 297 298 294 299 308 310 310